Weather History for PAFM - August, 2013

Change the Weather History Date:

Monday, August 19, 2013

  Actual Average Record
Temperature  
Mean Temperature 50 °F -  
Max Temperature 59 °F 55 °F 82 °F (2004)
Min Temperature 42 °F 42 °F 31 °F (1986)
Degree Days  
Heating Degree Days 14    
Moisture  
Dew Point 39 °F    
Average Humidity 61    
Maximum Humidity 81    
Minimum Humidity 48    
Precipitation  
Precipitation 0.00 in - - ()
Sea Level Pressure  
Sea Level Pressure 29.60 in    
Wind  
Wind Speed 2 mph (NNE)    
Max Wind Speed 9 mph    
Max Gust Speed -    
Visibility 10 miles    
Events      
Averages and records for this station are not official NWS values.
T = Trace of Precipitation, MM = Missing Value Source: NWS Daily Summary

Daily Weather History Graph

Daily Weather History Graph

Search for Another Location

Airport or City:

Trip Planner

Search our weather history database for the weather conditions in past years. The results will help you decide how hot, cold, wet, or windy it might be!

Date:

Astronomy

Aug. 19, 2013 Rise Set
Actual Time 6:16 AM AKDT 10:50 PM AKDT
Civil Twilight 5:00 AM AKDT 12:04 AM AKDT
Nautical Twilight 3:07 AM AKDT 2:02 AM AKDT
Astronomical Twilight Sun does not rise Sun does not rise
Moon 9:39 PM AKDT (8/19) 4:35 AM AKDT (8/19)
Length of Visible Light 19h 04m
Length of Day
16h 33m
Waxing Gibbous, 98% of the Moon is Illuminated
Aug 19
Waxing Gibbous
Aug 20
Full
Aug 28
Last Quarter
Sep 5
New
Sep 12
First Quarter

Hourly Weather History & Observations

Time (AKDT) Temp. Windchill Dew Point Humidity Pressure Visibility Wind Dir Wind Speed Gust Speed Precip Events Conditions
12:16 AM 53.6 °F - 39.2 °F 58% 29.56 in 10.0 mi Calm Calm - N/A   Overcast
12:36 AM 53.6 °F - 37.4 °F 54% 29.56 in 10.0 mi Calm Calm - N/A   Overcast
12:56 AM 53.6 °F - 37.4 °F 54% 29.56 in 10.0 mi North 3.5 mph - N/A   Overcast
1:16 AM 51.8 °F - 39.2 °F 62% 29.56 in 10.0 mi Calm Calm - N/A   Overcast
1:36 AM 50.0 °F - 39.2 °F 66% 29.56 in 10.0 mi Calm Calm - N/A   Overcast
1:56 AM 51.8 °F - 37.4 °F 58% 29.56 in 10.0 mi Calm Calm - N/A   Overcast
2:16 AM 53.6 °F - 37.4 °F 54% 29.56 in 10.0 mi North 3.5 mph - N/A   Overcast
2:36 AM 51.8 °F - 37.4 °F 58% 29.56 in 10.0 mi Calm Calm - N/A   Overcast
2:56 AM 51.8 °F - 37.4 °F 58% 29.56 in 10.0 mi Calm Calm - N/A   Overcast
3:16 AM 51.8 °F - 37.4 °F 58% 29.56 in 10.0 mi NNE 3.5 mph - N/A   Overcast
3:36 AM 51.8 °F - 37.4 °F 58% 29.56 in 10.0 mi Calm Calm - N/A   Overcast
3:56 AM 51.8 °F - 37.4 °F 58% 29.56 in 10.0 mi Calm Calm - N/A   Overcast
4:16 AM 50.0 °F - 37.4 °F 62% 29.56 in 10.0 mi North 3.5 mph - N/A   Overcast
4:36 AM 50.0 °F - 37.4 °F 62% 29.56 in 10.0 mi Calm Calm - N/A   Overcast
4:56 AM 48.2 °F - 39.2 °F 71% 29.57 in 10.0 mi Calm Calm - N/A   Overcast
5:16 AM 48.2 °F - 39.2 °F 71% 29.57 in 10.0 mi Calm Calm - N/A   Overcast
5:36 AM 48.2 °F - 39.2 °F 71% 29.57 in 10.0 mi Calm Calm - N/A   Overcast
5:56 AM 48.2 °F - 39.2 °F 71% 29.57 in 10.0 mi Calm Calm - N/A   Overcast
6:16 AM 46.4 °F - 39.2 °F 76% 29.57 in 10.0 mi Calm Calm - N/A   Overcast
6:36 AM 48.2 °F - 39.2 °F 71% 29.57 in 10.0 mi ENE 3.5 mph - N/A   Mostly Cloudy
6:56 AM 44.6 °F - 37.4 °F 76% 29.58 in 10.0 mi Calm Calm - N/A   Partly Cloudy
7:16 AM 42.8 °F - 37.4 °F 81% 29.58 in 10.0 mi Calm Calm - N/A   Clear
7:36 AM 42.8 °F - 37.4 °F 81% 29.58 in 10.0 mi Calm Calm - N/A   Partly Cloudy
7:56 AM 44.6 °F - 39.2 °F 81% 29.58 in 10.0 mi Calm Calm - N/A   Partly Cloudy
8:16 AM 44.6 °F - 39.2 °F 81% 29.58 in 10.0 mi Calm Calm - N/A   Clear
8:36 AM 44.6 °F - 39.2 °F 81% 29.59 in 10.0 mi Calm Calm - N/A   Clear
8:56 AM 46.4 °F - 41.0 °F 81% 29.59 in 10.0 mi Calm Calm - N/A   Clear
9:16 AM 48.2 °F - 41.0 °F 76% 29.59 in 10.0 mi Calm Calm - N/A   Clear
9:36 AM 48.2 °F - 39.2 °F 71% 29.59 in 10.0 mi Calm Calm - N/A   Clear
9:56 AM 50.0 °F - 39.2 °F 66% 29.59 in 10.0 mi ENE 4.6 mph - N/A   Clear
10:16 AM 51.8 °F - 39.2 °F 62% 29.60 in 10.0 mi NNE 5.8 mph - N/A   Scattered Clouds
10:36 AM 53.6 °F - 39.2 °F 58% 29.61 in 10.0 mi Calm Calm - N/A   Mostly Cloudy
10:56 AM 51.8 °F - 37.4 °F 58% 29.61 in 10.0 mi NNE 5.8 mph - N/A   Scattered Clouds
11:16 AM 51.8 °F - 39.2 °F 62% 29.61 in 10.0 mi North 3.5 mph - N/A   Scattered Clouds
11:36 AM 51.8 °F - 39.2 °F 62% 29.61 in 10.0 mi NNE 3.5 mph - N/A   Clear
11:56 AM 51.8 °F - 37.4 °F 58% 29.61 in 10.0 mi NNE 9.2 mph - N/A   Clear
12:16 PM 53.6 °F - 39.2 °F 58% 29.61 in 10.0 mi NE 4.6 mph - N/A   Clear
12:36 PM 53.6 °F - 39.2 °F 58% 29.61 in 10.0 mi NNE 4.6 mph - N/A   Clear
12:56 PM 53.6 °F - 39.2 °F 58% 29.62 in 10.0 mi NE 5.8 mph - N/A   Clear
1:16 PM 53.6 °F - 39.2 °F 58% 29.62 in 10.0 mi NNE 3.5 mph - N/A   Clear
1:36 PM 55.4 °F - 39.2 °F 54% 29.62 in 10.0 mi NNE 4.6 mph - N/A   Clear
1:56 PM 55.4 °F - 39.2 °F 54% 29.62 in 10.0 mi Calm Calm - N/A   Clear
2:16 PM 55.4 °F - 39.2 °F 54% 29.62 in 10.0 mi SSW 3.5 mph - N/A   Clear
2:36 PM 57.2 °F - 41.0 °F 55% 29.62 in 10.0 mi Calm Calm - N/A   Clear
2:56 PM 57.2 °F - 39.2 °F 51% 29.61 in 10.0 mi Calm Calm - N/A   Mostly Cloudy
3:16 PM 59.0 °F - 41.0 °F 51% 29.61 in 10.0 mi North 5.8 mph - N/A   Overcast
3:36 PM 57.2 °F - 39.2 °F 51% 29.61 in 10.0 mi Calm Calm - N/A   Mostly Cloudy
3:56 PM 57.2 °F - 39.2 °F 51% 29.61 in 10.0 mi Calm Calm - N/A   Overcast
4:16 PM 57.2 °F - 39.2 °F 51% 29.61 in 10.0 mi Calm Calm - N/A   Overcast
4:36 PM 57.2 °F - 39.2 °F 51% 29.61 in 10.0 mi Calm Calm - N/A   Overcast
4:56 PM 59.0 °F - 41.0 °F 51% 29.61 in 10.0 mi NE 3.5 mph - N/A   Overcast
5:16 PM 57.2 °F - 41.0 °F 55% 29.61 in 10.0 mi NNE 6.9 mph - N/A   Overcast
5:36 PM 57.2 °F - 39.2 °F 51% 29.61 in 10.0 mi NNE 3.5 mph - N/A   Overcast
5:56 PM 57.2 °F - 39.2 °F 51% 29.62 in 10.0 mi NNE 4.6 mph - N/A   Overcast
6:16 PM 57.2 °F - 39.2 °F 51% 29.62 in 10.0 mi Calm Calm - N/A   Overcast
6:36 PM 59.0 °F - 41.0 °F 51% 29.62 in 10.0 mi NNW 4.6 mph - N/A   Overcast
6:56 PM 59.0 °F - 39.2 °F 48% 29.62 in 10.0 mi North 3.5 mph - N/A   Overcast
7:16 PM 57.2 °F - 39.2 °F 51% 29.62 in 10.0 mi NNW 3.5 mph - N/A   Mostly Cloudy
7:36 PM 57.2 °F - 39.2 °F 51% 29.62 in 10.0 mi NNE 6.9 mph - N/A   Overcast
7:56 PM 57.2 °F - 39.2 °F 51% 29.62 in 10.0 mi NE 6.9 mph - N/A   Mostly Cloudy
8:16 PM 57.2 °F - 39.2 °F 51% 29.62 in 10.0 mi NNE 5.8 mph - N/A   Mostly Cloudy
8:36 PM 57.2 °F - 39.2 °F 51% 29.62 in 10.0 mi North 4.6 mph - N/A   Overcast
8:56 PM 55.4 °F - 39.2 °F 54% 29.63 in 10.0 mi North 5.8 mph - N/A   Overcast
9:16 PM 53.6 °F - 37.4 °F 54% 29.63 in 10.0 mi NNE 3.5 mph - N/A   Scattered Clouds
9:36 PM 53.6 °F - 37.4 °F 54% 29.63 in 10.0 mi North 6.9 mph - N/A   Clear
9:56 PM 51.8 °F - 37.4 °F 58% 29.63 in 10.0 mi North 3.5 mph - N/A   Clear
10:16 PM 51.8 °F - 35.6 °F 54% 29.63 in 10.0 mi North 3.5 mph - N/A   Clear
10:36 PM 48.2 °F - 35.6 °F 62% 29.63 in 10.0 mi Calm Calm - N/A   Mostly Cloudy
10:56 PM 48.2 °F - 35.6 °F 62% 29.63 in 10.0 mi NNW 3.5 mph - N/A   Scattered Clouds
11:16 PM 48.2 °F - 35.6 °F 62% 29.63 in 10.0 mi Calm Calm - N/A   Clear
11:36 PM 44.6 °F 43.1 °F 35.6 °F 71% 29.64 in 10.0 mi SW 3.5 mph - N/A   Clear
11:56 PM 42.8 °F - 35.6 °F 76% 29.64 in 10.0 mi Calm Calm - N/A   Clear